• In Hungary
  • List of Countries
  • For 7 days
  • Water Temperature
  • Satellite Maps
  • Weather Map
  • News
  • Weather Widgets
  • user-avatar
    Login

    Hourly Weather Kvashnino

    Today, 23 September, Sunday

    Time Temperature Precipitation Wind Pressure Humidity
    00:00 +9°C° 0.6 mm 3 mps 737 mmHg 92%
    01:00 +9°C° 0.6 mm 3 mps 737 mmHg 93%
    02:00 +9°C° 0 mm 3 mps 737 mmHg 93%
    03:00 +9°C° 0.3 mm 3 mps 737 mmHg 93%
    04:00 +9°C° 0.3 mm 3 mps 737 mmHg 93%
    05:00 +9°C° 0.3 mm 3 mps 736 mmHg 93%
    06:00 +9°C° 0 mm 3 mps 736 mmHg 92%
    07:00 +9°C° 0 mm 3 mps 736 mmHg 91%
    08:00 +8°C° 0 mm 4 mps 736 mmHg 89%
    09:00 +10°C° 0 mm 4 mps 736 mmHg 84%
    10:00 +11°C° 0 mm 4 mps 736 mmHg 79%
    11:00 +10°C° 0 mm 5 mps 736 mmHg 74%
    12:00 +12°C° 0.1 mm 5 mps 736 mmHg 72%
    13:00 +12°C° 0.1 mm 5 mps 736 mmHg 69%
    14:00 +13°C° 0.1 mm 5 mps 736 mmHg 67%
    15:00 +12°C° 0.2 mm 4 mps 736 mmHg 72%
    16:00 +11°C° 0.2 mm 3 mps 736 mmHg 76%
    17:00 +10°C° 0.2 mm 3 mps 736 mmHg 81%
    18:00 +9°C° 0 mm 3 mps 736 mmHg 84%
    19:00 +8°C° 0 mm 3 mps 736 mmHg 88%
    20:00 +8°C° 0 mm 3 mps 736 mmHg 91%
    21:00 +7°C° 0 mm 3 mps 736 mmHg 91%
    22:00 +7°C° 0 mm 3 mps 736 mmHg 92%
    23:00 +7°C° 0 mm 3 mps 736 mmHg 92%

    Tomorrow, 24 September, Monday

    Time Temperature Precipitation Wind Pressure Humidity
    00:00 +7°C° 0 mm 3 mps 736 mmHg 93%
    01:00 +5°C° 0 mm 3 mps 736 mmHg 94%
    02:00 +6°C° 0 mm 2 mps 736 mmHg 96%
    03:00 +6°C° 0 mm 2 mps 736 mmHg 96%
    04:00 +6°C° 0 mm 2 mps 735 mmHg 96%
    05:00 +6°C° 0 mm 2 mps 735 mmHg 97%
    06:00 +6°C° 0 mm 2 mps 735 mmHg 95%
    07:00 +7°C° 0 mm 2 mps 735 mmHg 92%
    08:00 +8°C° 0 mm 2 mps 735 mmHg 90%
    09:00 +9°C° 0 mm 2 mps 735 mmHg 87%
    10:00 +9°C° 0 mm 2 mps 734 mmHg 83%
    11:00 +10°C° 0 mm 2 mps 734 mmHg 80%
    12:00 +10°C° 0.7 mm 2 mps 734 mmHg 83%
    13:00 +10°C° 0.7 mm 2 mps 733 mmHg 86%
    14:00 +9°C° 0.7 mm 2 mps 733 mmHg 88%
    15:00 +9°C° 1 mm 2 mps 732 mmHg 90%
    16:00 +8°C° 1 mm 2 mps 732 mmHg 92%
    17:00 +8°C° 1 mm 2 mps 731 mmHg 94%
    18:00 +8°C° 1.3 mm 3 mps 731 mmHg 94%
    19:00 +8°C° 1.3 mm 3 mps 730 mmHg 94%
    20:00 +6°C° 1.3 mm 4 mps 730 mmHg 94%
    21:00 +6°C° 1.1 mm 4 mps 729 mmHg 94%
    22:00 +6°C° 1.1 mm 5 mps 729 mmHg 93%
    23:00 +5°C° 1.1 mm 6 mps 729 mmHg 93%

    Day after tomorrow, 25 September, Tuesday

    Time Temperature Precipitation Wind Pressure Humidity
    00:00 +5°C° 0.9 mm 6 mps 729 mmHg 92%
    01:00 +5°C° 0.9 mm 6 mps 729 mmHg 91%
    02:00 +5°C° 0.9 mm 7 mps 729 mmHg 90%
    03:00 +4°C° 0.5 mm 7 mps 729 mmHg 90%
    04:00 +4°C° 0.5 mm 7 mps 729 mmHg 89%
    05:00 +4°C° 0.5 mm 7 mps 730 mmHg 89%
    06:00 +4°C° 0.3 mm 7 mps 730 mmHg 88%
    07:00 +4°C° 0.3 mm 7 mps 731 mmHg 87%
    08:00 +4°C° 0.3 mm 7 mps 732 mmHg 86%
    09:00 +4°C° 0.1 mm 7 mps 732 mmHg 84%
    10:00 +4°C° 0.1 mm 7 mps 733 mmHg 82%
    11:00 +5°C° 0.1 mm 7 mps 734 mmHg 81%
    12:00 +5°C° 0.1 mm 7 mps 734 mmHg 78%
    13:00 +5°C° 0.1 mm 7 mps 735 mmHg 75%
    14:00 +5°C° 0.1 mm 7 mps 736 mmHg 72%
    15:00 +5°C° 0.1 mm 7 mps 736 mmHg 73%
    16:00 +5°C° 0.1 mm 6 mps 737 mmHg 74%
    17:00 +5°C° 0.1 mm 6 mps 738 mmHg 75%
    18:00 +4°C° 0 mm 6 mps 739 mmHg 72%
    19:00 +4°C° 0 mm 6 mps 740 mmHg 70%
    20:00 +3°C° 0 mm 5 mps 740 mmHg 67%
    21:00 +3°C° 0 mm 5 mps 741 mmHg 67%
    22:00 +2°C° 0 mm 5 mps 742 mmHg 66%
    23:00 +1°C° 0 mm 5 mps 742 mmHg 66%

    26 September, Wednesday

    Time Temperature Precipitation Wind Pressure Humidity
    00:00 +1°C° 0 mm 4 mps 743 mmHg 68%
    01:00 +1°C° 0 mm 4 mps 743 mmHg 69%
    02:00 0°C° 0 mm 4 mps 744 mmHg 71%
    03:00 0°C° 0 mm 4 mps 744 mmHg 75%
    04:00 +1°C° 0 mm 3 mps 745 mmHg 78%
    05:00 +1°C° 0 mm 3 mps 745 mmHg 82%
    06:00 +2°C° 0 mm 3 mps 746 mmHg 82%
    07:00 +3°C° 0 mm 3 mps 746 mmHg 82%
    08:00 +4°C° 0 mm 4 mps 746 mmHg 82%
    09:00 +5°C° 0 mm 4 mps 746 mmHg 74%
    10:00 +7°C° 0 mm 4 mps 746 mmHg 66%
    11:00 +8°C° 0 mm 4 mps 746 mmHg 58%
    12:00 +10°C° 0 mm 4 mps 745 mmHg 55%
    13:00 +9°C° 0 mm 5 mps 745 mmHg 52%
    14:00 +10°C° 0 mm 5 mps 745 mmHg 49%
    15:00 +9°C° 0 mm 5 mps 744 mmHg 56%
    16:00 +8°C° 0 mm 5 mps 743 mmHg 63%
    17:00 +8°C° 0 mm 4 mps 743 mmHg 69%
    18:00 +7°C° 0.4 mm 5 mps 742 mmHg 76%
    19:00 +7°C° 0.4 mm 6 mps 741 mmHg 82%
    20:00 +5°C° 0.4 mm 6 mps 740 mmHg 89%
    21:00 +5°C° 1.2 mm 6 mps 739 mmHg 89%
    22:00 +5°C° 1.2 mm 7 mps 738 mmHg 90%
    23:00 +5°C° 1.2 mm 7 mps 737 mmHg 90%

    27 September, Thursday

    Time Temperature Precipitation Wind Pressure Humidity
    00:00 +5°C° 1.7 mm 7 mps 736 mmHg 91%
    01:00 +5°C° 1.7 mm 7 mps 735 mmHg 91%
    02:00 +5°C° 1.7 mm 6 mps 734 mmHg 92%
    03:00 +5°C° 1.4 mm 7 mps 733 mmHg 92%
    04:00 +6°C° 1.4 mm 7 mps 731 mmHg 92%
    05:00 +6°C° 1.4 mm 7 mps 730 mmHg 92%
    06:00 +6°C° 1.8 mm 7 mps 729 mmHg 92%
    07:00 +8°C° 1.8 mm 7 mps 728 mmHg 91%
    08:00 +9°C° 1.8 mm 7 mps 727 mmHg 91%
    09:00 +9°C° 0.7 mm 7 mps 727 mmHg 90%
    10:00 +10°C° 0.7 mm 6 mps 727 mmHg 89%
    11:00 +10°C° 0.7 mm 6 mps 727 mmHg 88%
    12:00 +10°C° 0.6 mm 6 mps 727 mmHg 87%
    13:00 +10°C° 0.6 mm 6 mps 728 mmHg 85%
    14:00 +10°C° 0.6 mm 6 mps 728 mmHg 84%
    15:00 +9°C° 0.4 mm 7 mps 728 mmHg 83%
    16:00 +8°C° 0.4 mm 7 mps 729 mmHg 82%
    17:00 +6°C° 0.4 mm 8 mps 730 mmHg 81%
    18:00 +5°C° 0.1 mm 8 mps 731 mmHg 80%
    19:00 +5°C° 0.1 mm 8 mps 732 mmHg 79%
    20:00 +4°C° 0.1 mm 7 mps 733 mmHg 78%
    21:00 +4°C° 0 mm 7 mps 733 mmHg 79%
    22:00 +3°C° 0 mm 6 mps 734 mmHg 79%
    23:00 +3°C° 0 mm 5 mps 735 mmHg 80%

    28 September, Friday

    Time Temperature Precipitation Wind Pressure Humidity
    00:00 +3°C° 0 mm 5 mps 735 mmHg 81%
    01:00 +3°C° 0 mm 5 mps 736 mmHg 82%
    02:00 +3°C° 0 mm 4 mps 736 mmHg 83%
    03:00 +3°C° 0 mm 4 mps 737 mmHg 84%
    04:00 +3°C° 0 mm 4 mps 737 mmHg 85%
    05:00 +3°C° 0 mm 3 mps 737 mmHg 85%
    06:00 +3°C° 0 mm 3 mps 738 mmHg 84%
    07:00 +4°C° 0 mm 3 mps 738 mmHg 82%
    08:00 +4°C° 0 mm 3 mps 738 mmHg 81%
    09:00 +5°C° 0 mm 3 mps 738 mmHg 76%
    10:00 +7°C° 0 mm 3 mps 739 mmHg 72%
    11:00 +8°C° 0 mm 2 mps 739 mmHg 67%
    12:00 +9°C° 0.1 mm 3 mps 739 mmHg 65%
    13:00 +9°C° 0.1 mm 3 mps 739 mmHg 62%
    14:00 +10°C° 0.1 mm 3 mps 739 mmHg 59%
    15:00 +9°C° 0 mm 2 mps 740 mmHg 64%
    16:00 +8°C° 0 mm 2 mps 740 mmHg 69%
    17:00 +8°C° 0 mm 1 mps 741 mmHg 74%
    18:00 +7°C° 0 mm 1 mps 741 mmHg 79%
    19:00 +6°C° 0 mm 1 mps 742 mmHg 83%
    20:00 +5°C° 0 mm 1 mps 742 mmHg 87%
    21:00 +4°C° 0 mm 2 mps 742 mmHg 89%
    22:00 +3°C° 0 mm 2 mps 743 mmHg 91%
    23:00 +3°C° 0 mm 2 mps 743 mmHg 93%
    Show more